Regional Weather Roundup
Issued by NWS

Home | Current Version | Previous Version | Graphics & Text | Print | Product List | Glossary On
Versions: 1 2 3 4 5 6 7 8 9 10 11 12 13 14 15 16 17 18 19 20 21 22 23 24 25 26 27 28 29 30 31 32 33 34 35 36 37 38 39 40 41 42 43 44 45 46 47 48 49 50
000
ASUS43 KOAX 120902
RWRNE

WEATHER ROUNDUP FOR NEBRASKA
NATIONAL WEATHER SERVICE OMAHA NE
300 AM CST TUE DEC 12 2017

NOTES: SATELLITE DATA IS BEING USED TO AUGMENT CLOUD COVER ABOVE
       12000 FEET.
       "FAIR" INDICATES FEW OR NO CLOUDS BELOW 12,000 FEET WITH NO
       SIGNIFICANT WEATHER AND/OR OBSTRUCTIONS TO VISIBILITY.


NEZ001>004-019>022-054>056-121000-
NEBRASKA PANHANDLE

CITY           SKY/WX    TMP DP  RH WIND       PRES   REMARKS
SCOTTSBLUFF    CLOUDY    21  13  71 W7        30.38F WCI  12
ALLIANCE       CLOUDY    11   7  84 W6        30.34F WCI   1
CHADRON        CLOUDY    16  12  84 SW5       30.35F WCI   9
GORDON         FAIR      20  18  89 CALM      30.32F
KIMBALL        CLOUDY    24  13  63 W8        30.38F WCI  15
SIDNEY         CLOUDY    23  12  62 W13       30.38F WCI  11
$$

NEZ057>060-069>072-079>082-121000-
SOUTHWEST NEBRASKA

CITY           SKY/WX    TMP DP  RH WIND       PRES   REMARKS
IMPERIAL       CLOUDY    20  14  77 W6        30.41S WCI  12
LEXINGTON      CLOUDY    23  20  88 W9        30.38S WCI  13
MCCOOK         CLOUDY    23  18  81 W10       30.41S WCI  12
OGALLALA       CLOUDY    17  13  84 W3        30.40S
$$

NEZ005>010-023>029-035>040-094-121000-
NORTH CENTRAL NEBRASKA

CITY           SKY/WX    TMP DP  RH WIND       PRES   REMARKS
VALENTINE      CLOUDY    24  21  88 W7        30.33F WCI  16
AINSWORTH      CLOUDY    34  29  82 NW5       30.32F WCI  30
BROKEN BOW     CLOUDY    35  25  66 NW8       30.34F WCI  29
O`NEILL        CLOUDY    20  20 100 W5        30.33F WCI  14
ORD            CLOUDY    32  28  85 SE3       30.35S
THEDFORD       PTCLDY    24  22  91 W9        30.35F WCI  15
$$

NEZ041-046>049-061>064-073>077-083>087-121000-
SOUTH CENTRAL NEBRASKA

CITY           SKY/WX    TMP DP  RH WIND       PRES   REMARKS
GRAND ISLAND   CLOUDY    24  23  96 W5        30.39R WCI  18
AURORA         CLOUDY    19  17  93 NW6       30.37S WCI  10
HASTINGS       MOCLDY    24  21  88 NW7       30.38S WCI  16
HEBRON         CLOUDY    25  21  84 NW5       30.39S WCI  19
HOLDREGE       CLOUDY    31  26  80 W6        30.38S WCI  25
KEARNEY        CLOUDY    34  29  82 NW3       30.38S
$$

NEZ011>018-030>034-042>045-121000-
NORTHEAST NEBRASKA

CITY           SKY/WX    TMP DP  RH WIND       PRES   REMARKS
NORFOLK        CLOUDY    18  15  88 W7        30.35F WCI   9
ALBION         CLOUDY    19  17  91 N5        30.35F WCI  13
BLAIR          CLEAR     19  15  84 NW7       30.34S WCI   9
COLUMBUS       CLOUDY    20  16  84 NW8       30.38R WCI  10
FREMONT        CLOUDY    17  13  85 NW6       30.36F WCI   9
TEKAMAH        CLOUDY    16  11  80 NW9       30.37S WCI   4
WAYNE          CLOUDY    16  14  91 W7        30.34F WCI   6
$$

NEZ050>053-065>068-078-088>093-121000-
SOUTHEAST NEBRASKA

CITY           SKY/WX    TMP DP  RH WIND       PRES   REMARKS
LINCOLN        CLEAR     23  14  68 N6        30.40R WCI  16
OMAHA EPPLEY   CLEAR     16   9  74 N7        30.37R WCI   6
BEATRICE       CLEAR     19  17  93 NW8       30.38S WCI   9
FALLS CITY     CLEAR     23  15  71 NW13      30.36R WCI  11
NEBRASKA CITY  CLEAR     22  17  83 N9        30.35R WCI  11
PLATTSMOUTH    CLEAR     20  17  86 NW12      30.35S WCI   8
$$

NEZ044-045-051>053-067-121000-
OMAHA AREA

CITY           SKY/WX    TMP DP  RH WIND       PRES   REMARKS
OMAHA EPPLEY   CLEAR     16   9  74 N7        30.37R WCI   6
BLAIR          CLEAR     19  15  84 NW7       30.34S WCI   9
FREMONT        CLOUDY    17  13  85 NW6       30.36F WCI   9
MILLARD        CLEAR     23  16  74 N5        30.37S WCI  17
OFFUTT AFB     CLEAR     18  13  81 NW8       30.36R WCI   8
PLATTSMOUTH    CLEAR     20  17  86 NW12      30.35S WCI   8
WAHOO          FAIR      19  14  79 NW9       30.37R WCI   8
$$




USA.gov is the U.S. government's official web portal to all federal, state and local government web resources and services.